Stations météo

réclame
Mon MeteoGroup
Ansbach/Katterbach, Allemagne (10755): Température de l'air & dewpoint: 07.12.2017 04:00:00 - 13.12.2017 04:00:00 (CET)Ansbach/Katterbach, Allemagne (10755): Vitesse du vent & gusts: 07.12.2017 04:00:00 - 13.12.2017 04:00:00 (CET)Ansbach/Katterbach, Allemagne (10755): Direction du vent: 07.12.2017 04:00:00 - 13.12.2017 04:00:00 (CET)Ansbach/Katterbach, Allemagne (10755): reduced air pressure: 07.12.2017 04:00:00 - 13.12.2017 04:00:00 (CET)Ansbach/Katterbach, Allemagne (10755): visibility: 07.12.2017 04:00:00 - 13.12.2017 04:00:00 (CET)
Date & Time tt [°C] td [°C] ff [km/h] ff [knt] fx [km/h] fx [knt] dd ppp [hPa] vv [km]
13.12.2017 04:00:00 -0,5 -2,4 9 5 - - S 1020,5 10
13.12.2017 03:00:00 -0,9 -2,2 11 6 - - S 1020,5 10
13.12.2017 02:00:00 -0,7 -2,1 9 5 - - SSW 1020,7 10
13.12.2017 01:00:00 -0,8 -2,9 9 5 - - SSW 1020,7 10
13.12.2017 00:00:00 -0,8 -2,9 8 4 - - SSW 1020,2 10
12.12.2017 23:00:00 -0,3 -3,0 11 6 - - SSW 1019,8 10
12.12.2017 22:00:00 -0,4 -3,4 8 4 - - SSW 1019,5 10
12.12.2017 21:00:00 -0,4 -3,9 9 5 - - SSW 1019,2 10
12.12.2017 20:00:00 -0,3 -3,8 5 3 - - WSW 1018,7 10
12.12.2017 19:00:00 0,1 -3,1 18 10 - - WSW 1017,4 10
12.12.2017 18:00:00 0,5 -1,6 15 8 - - WSW 1016,8 10
12.12.2017 17:00:00 0,4 -1,4 11 6 - - SW 1015,5 10
12.12.2017 16:00:00 1,6 -1,1 15 8 - - WSW 1014,8 10
12.12.2017 15:00:00 2,3 -1,5 18 10 - - WSW 1012,9 10
12.12.2017 14:00:00 1,9 -2,1 22 12 - - WSW 1012,5 10
12.12.2017 13:00:00 1,3 -1,9 21 11 - - WSW 1012,4 10
12.12.2017 12:00:00 2,4 -2,3 26 14 - - WSW 1011,2 10
12.12.2017 11:00:00 1,4 -2,4 21 11 - - WSW 1010,4 10
12.12.2017 10:00:00 1,2 -2,6 22 12 - - WSW 1009,0 10
12.12.2017 09:00:00 1,1 -2,5 35 19 50 27 WSW 1007,3 10
12.12.2017 08:00:00 0,8 -2,4 31 17 61 33 W 1005,2 10
12.12.2017 07:00:00 1,6 -2,7 41 22 61 33 WSW 1002,2 10
12.12.2017 06:00:00 1,9 -2,8 41 22 67 36 WSW 1000,5 10
12.12.2017 05:00:00 3,7 1,6 28 15 - - WSW 997,9 10
12.12.2017 04:00:00 3,4 1,9 15 8 - - SSW 996,2 10
12.12.2017 03:00:00 3,5 1,9 24 13 - - S 994,5 10
12.12.2017 02:00:00 3,5 2,0 28 15 - - S 993,4 10
12.12.2017 01:00:00 3,6 2,3 24 13 - - S 993,1 10
12.12.2017 00:00:00 3,5 2,6 24 13 - - S 992,4 10
11.12.2017 23:00:00 3,6 2,7 21 11 - - S 991,4 10
11.12.2017 22:00:00 4,0 3,0 18 10 - - S 991,0 10
11.12.2017 21:00:00 3,8 3,1 16 9 - - S 990,0 10
11.12.2017 20:00:00 3,8 2,8 9 5 - - S 989,9 10
11.12.2017 19:00:00 3,5 2,2 8 4 - - SSE 988,9 10
11.12.2017 18:00:00 3,7 1,7 5 3 - - S 988,9 10
11.12.2017 17:00:00 3,9 2,1 8 4 - - WSW 987,9 10
11.12.2017 16:00:00 4,0 3,3 8 4 - - S 986,2 10
11.12.2017 15:00:00 3,9 3,2 9 5 - - SSE 984,5 10
11.12.2017 14:00:00 4,1 3,5 13 7 - - ESE 983,8 9
11.12.2017 13:00:00 4,0 3,6 15 8 - - SE 985,2 10
11.12.2017 12:00:00 3,5 3,1 13 7 - - ESE 985,9 10
11.12.2017 11:00:00 3,6 3,3 9 5 - - ESE 986,6 10
11.12.2017 10:00:00 3,6 3,3 15 8 - - SE 987,9 10
11.12.2017 09:00:00 3,3 2,9 11 6 - - ESE 987,6 8
11.12.2017 08:00:00 3,0 2,3 11 6 - - SE 988,5 10
11.12.2017 07:00:00 3,0 2,0 13 7 - - SE 989,4 10
11.12.2017 06:00:00 3,0 1,0 15 8 - - SE 990,0 10
11.12.2017 05:00:00 3,3 1,3 9 5 - - S 990,7 10
11.12.2017 04:00:00 3,2 1,2 11 6 - - SSE 990,2 10
11.12.2017 03:00:00 3,7 1,1 13 7 - - S 990,5 10
11.12.2017 02:00:00 3,5 0,9 15 8 - - S 990,2 10
11.12.2017 01:00:00 3,8 1,0 18 10 - - SSW 989,8 10
11.12.2017 00:00:00 3,8 1,0 26 14 - - S 989,3 10
10.12.2017 23:00:00 3,5 0,9 22 12 - - S 989,3 10
10.12.2017 22:00:00 3,9 1,3 24 13 - - S 989,5 10
10.12.2017 21:00:00 3,8 1,8 28 15 - - S 989,8 10
10.12.2017 20:00:00 2,5 1,0 28 15 - - S 990,1 10
10.12.2017 19:00:00 1,3 0,1 22 12 - - S 990,6 10
10.12.2017 18:00:00 -0,4 -1,7 16 9 - - S 990,5 10
10.12.2017 17:00:00 -1,3 -2,6 16 9 - - SSW 990,5 10
10.12.2017 16:00:00 -2,4 -3,8 26 14 - - S 990,2 5
10.12.2017 15:00:00 -3,7 -5,3 28 15 - - SSE 990,5 1,6
10.12.2017 14:00:00 -4,0 -5,7 26 14 - - SE 991,4 0,4
10.12.2017 13:00:00 -3,6 -6,6 24 13 - - SE 993,6 1,4
10.12.2017 12:00:00 -2,8 -8,1 22 12 - - SSE 997,4 10
10.12.2017 11:00:00 -3,0 -7,0 15 8 - - SE 1000,1 10
10.12.2017 10:00:00 -3,3 -6,8 22 12 - - SSE 1002,3 10
10.12.2017 09:00:00 -4,8 -7,6 13 7 - - SE 1004,6 10
10.12.2017 08:00:00 -5,8 -8,2 16 9 - - SSE 1006,9 10
10.12.2017 07:00:00 -5,8 -8,5 11 6 - - SSE 1009,3 10
10.12.2017 06:00:00 -5,3 -8,4 11 6 - - S 1010,1 10
10.12.2017 05:00:00 -4,9 -8,2 15 8 - - S 1011,4 10
10.12.2017 04:00:00 -4,2 -8,2 15 8 - - S 1012,2 10
10.12.2017 03:00:00 -3,3 -7,3 13 7 - - S 1013,5 10
10.12.2017 02:00:00 -3,2 -7,5 13 7 - - SSW 1014,3 10
10.12.2017 01:00:00 -3,0 -7,5 11 6 - - SSW 1015,0 10
10.12.2017 00:00:00 -2,7 -7,4 13 7 - - SW 1016,1 10
09.12.2017 23:00:00 -2,2 -6,9 16 9 - - SW 1016,4 10
09.12.2017 22:00:00 -2,0 -6,4 24 13 - - WSW 1017,1 10
09.12.2017 21:00:00 -1,9 -5,9 24 13 - - WSW 1017,4 10
09.12.2017 20:00:00 -2,2 -5,4 21 11 - - WSW 1017,4 10
09.12.2017 19:00:00 -2,0 -5,8 26 14 - - WSW 1017,4 10
09.12.2017 18:00:00 -2,0 -6,2 24 13 - - WSW 1017,4 10
09.12.2017 17:00:00 -2,1 -6,5 26 14 50 27 WSW 1017,4 10
09.12.2017 16:00:00 -2,0 -6,7 31 17 52 28 WSW 1017,4 10
09.12.2017 15:00:00 -2,2 -7,1 26 14 - - WSW 1017,4 10
09.12.2017 14:00:00 -1,8 -6,7 28 15 50 27 WSW 1017,4 10
09.12.2017 13:00:00 -2,0 -6,7 31 17 - - WSW 1017,4 10
09.12.2017 12:00:00 -1,8 -6,0 29 16 - - WSW 1017,8 10
09.12.2017 11:00:00 -1,9 -5,9 24 13 - - W 1017,5 10
09.12.2017 10:00:00 -2,2 -5,7 16 9 - - W 1017,5 10
09.12.2017 09:00:00 -2,1 -5,4 28 15 - - W 1016,9 10
09.12.2017 08:00:00 -2,0 -4,7 22 12 - - W 1015,8 10
09.12.2017 07:00:00 -1,8 -4,3 18 10 - - W 1015,5 10
09.12.2017 06:00:00 -1,9 -3,2 28 15 - - W 1015,4 10
09.12.2017 05:00:00 -2,0 -3,6 18 10 - - WSW 1014,8 1,4
09.12.2017 04:00:00 -1,9 -4,6 21 11 - - W 1014,8 10
09.12.2017 03:00:00 -2,5 -4,8 18 10 - - W 1015,1 10
09.12.2017 02:00:00 -1,5 -4,3 24 13 - - W 1014,3 10
09.12.2017 01:00:00 -1,4 -3,4 24 13 - - W 1013,8 10
09.12.2017 00:00:00 -1,4 -3,4 24 13 - - W 1014,3 10
08.12.2017 23:00:00 -0,6 -2,7 16 9 - - WSW 1014,7 10
08.12.2017 22:00:00 -0,4 -2,5 21 11 - - WSW 1014,7 10
08.12.2017 21:00:00 -0,4 -2,5 21 11 - - W 1014,7 10
08.12.2017 20:00:00 -0,8 -3,0 15 8 - - SW 1014,3 10
08.12.2017 19:00:00 -1,0 -3,2 21 11 - - WSW 1013,4 10
08.12.2017 18:00:00 -1,4 -3,3 16 9 - - W 1013,4 10
08.12.2017 17:00:00 -0,9 -3,3 29 16 52 28 W 1013,1 10
08.12.2017 16:00:00 0,3 -1,0 37 20 - - W 1013,1 10
08.12.2017 15:00:00 0,0 -1,0 22 12 - - W 1012,4 2,0
08.12.2017 14:00:00 3,2 -2,1 24 13 - - W 1011,8 10
08.12.2017 13:00:00 3,9 -1,7 26 14 - - W 1011,6 10
08.12.2017 12:00:00 3,4 -1,6 29 16 - - W 1012,8 10
08.12.2017 11:00:00 2,6 -1,2 28 15 - - W 1013,1 10
08.12.2017 10:00:00 2,6 0,2 22 12 - - W 1013,1 10
08.12.2017 09:00:00 2,7 0,4 21 11 - - W 1012,8 10
08.12.2017 08:00:00 2,5 0,9 5 3 - - WSW 1012,4 10
08.12.2017 07:00:00 4,6 2,5 18 10 - - W 1011,8 10
08.12.2017 06:00:00 5,0 4,0 26 14 - - WSW 1011,5 10
08.12.2017 05:00:00 4,8 4,1 22 12 - - SW 1011,3 10
08.12.2017 04:00:00 4,8 3,6 24 13 - - SW 1011,3 10
08.12.2017 03:00:00 4,6 3,1 21 11 - - SW 1011,2 10
08.12.2017 02:00:00 3,3 1,0 16 9 - - SSW 1011,7 10
08.12.2017 01:00:00 3,1 -0,4 15 8 - - SSW 1012,3 10
08.12.2017 00:00:00 1,9 -1,7 11 6 - - S 1013,9 10
07.12.2017 23:00:00 1,7 -2,1 16 9 - - S 1014,1 10
07.12.2017 22:00:00 1,6 -2,4 18 10 - - S 1016,1 10
07.12.2017 21:00:00 0,7 -2,5 11 6 - - S 1017,3 10
07.12.2017 20:00:00 1,4 -2,5 15 8 - - S 1018,7 10
07.12.2017 19:00:00 1,3 -1,9 18 10 - - S 1019,0 10
07.12.2017 18:00:00 1,7 -1,6 13 7 - - S 1019,8 10
07.12.2017 17:00:00 2,2 -1,2 15 8 - - S 1020,5 10
07.12.2017 16:00:00 4,0 -0,8 18 10 - - S 1021,3 10
07.12.2017 15:00:00 6,4 -2,0 15 8 - - SSW 1021,8 10
07.12.2017 14:00:00 6,6 -2,3 24 13 - - SW 1022,9 10
07.12.2017 13:00:00 5,4 -1,1 18 10 - - SSW 1023,6 10
07.12.2017 12:00:00 4,1 -1,5 18 10 - - SW 1024,9 10
07.12.2017 11:00:00 2,5 -1,5 16 9 - - S 1025,6 10
07.12.2017 10:00:00 0,3 -1,6 9 5 - - S 1026,7 10
07.12.2017 09:00:00 -1,2 -2,2 16 9 - - S 1027,1 8
07.12.2017 08:00:00 -1,4 -2,4 18 10 - - S 1027,1 8
07.12.2017 07:00:00 -1,3 -2,3 21 11 - - S 1027,4 9
07.12.2017 06:00:00 -0,9 -2,0 21 11 - - S 1028,1 9
07.12.2017 05:00:00 -0,7 -2,1 16 9 - - S - 10
07.12.2017 04:00:00 0,0 -2,0 11 6 - - S - 10

tt = Température de l'air
td = dewpoint
ff = Vitesse du vent
fx = gusts
dd = Direction du vent
ppp = reduced air pressure
vv = visibility

stations d'obs. à proximité